Location: Tauranga
(37.6860°S, 176.1670°E)
Time: 18:01:27
(UTC+13:00)

Cosmos 2237 - Pass Details

Date: 24 January 2019
Orbit: 844 x 858 km, 70.8° (Epoch: 15 October)

Event Time Altitude Azimuth Distance (km) Brightness Sun altitude
Exits shadow 22:21:17 23° 8° (N) 1,744 5.4 -18.2°
Maximum altitude 22:24:39 51° 73° (ENE) 1,072 4.4 -18.7°
Drops below altitude 10° 22:30:12 10° 147° (SSE) 2,502 6.8 -19.5°
Sets 22:32:43 0° 152° (SSE) 3,443 7.6 -19.8°
